EW8832 Weather Reports


Display with metric or nautical units.
time (UTC)temp
F
wind
direction
speed
MPH
gust
MPH
rain 1hr
in
rain 24hr
in
rain mn
in
humidity
%
barometer
mb
20260505051548 65 136 5.0 12.0 0.00 0.00 0.00 75 1002.8
20260505041545 64 179 5.0 10.0 0.00 0.00 0.00 76 1003.7
20260505040045 64 178 5.0 8.0 0.00 0.00 0.00 77 1003.7
20260505034548 64 177 2.0 8.0 0.00 0.00 0.00 76 1003.9
20260505033043 65 174 3.0 7.0 0.00 0.00 0.00 76 1004.0
20260505031548 65 182 3.0 8.0 0.00 0.00 0.00 76 1004.0
20260505030043 65 192 3.0 5.0 0.00 0.00 0.00 75 1004.1
20260505024541 65 184 3.0 5.0 0.00 0.00 0.00 74 1004.1
20260505023039 66 194 2.0 5.0 0.00 0.00 0.00 73 1003.9
20260505021538 66 194 1.0 4.0 0.00 0.00 0.00 72 1003.7
20260505020040 67 197 3.0 6.0 0.00 0.00 0.00 70 1003.4
20260505014539 68 208 2.0 8.0 0.00 0.00 0.00 68 1003.3
20260505013039 68 208 2.0 5.0 0.00 0.00 0.00 68 1003.4
20260505011542 68 195 2.0 5.0 0.00 0.00 0.00 68 1003.0
20260505004538 70 209 3.0 9.0 0.00 0.00 0.00 63 1002.6
20260505003042 71 193 4.0 9.0 0.00 0.00 0.00 62 1002.7
20260505001537 71 205 5.0 11.0 0.00 0.00 0.00 62 1002.7
20260505000044 72 220 4.0 14.0 0.00 0.00 0.00 60 1002.8
20260504234536 73 182 6.0 12.0 0.00 0.00 0.00 59 1002.7
20260504233034 73 198 6.0 18.0 0.00 0.00 0.00 58 1002.8
20260504231536 74 179 7.0 16.0 0.00 0.00 0.00 56 1002.9
20260504230040 74 188 8.0 17.0 0.00 0.00 0.00 55 1003.0
20260504224533 75 219 7.0 24.0 0.00 0.00 0.00 54 1002.8
20260504223033 75 180 8.0 19.0 0.00 0.00 0.00 53 1002.8
20260504221545 75 189 10.0 22.0 0.00 0.00 0.00 55 1002.7
20260504220034 75 150 13.0 20.0 0.00 0.00 0.00 54 1002.9
20260504214531 76 178 10.0 23.0 0.00 0.00 0.00 53 1003.0
20260504213033 76 174 9.0 17.0 0.00 0.00 0.00 55 1003.2
20260504211533 76 209 11.0 21.0 0.00 0.00 0.00 52 1003.4
20260504210025 76 222 10.0 18.0 0.00 0.00 0.00 53 1003.6
20260504204528 76 198 11.0 24.0 0.00 0.00 0.00 52 1003.8
20260504203022 76 215 8.0 21.0 0.00 0.00 0.00 53 1004.1
20260504201520 76 217 9.0 24.0 0.00 0.00 0.00 54 1004.5
20260504200018 76 240 8.0 22.0 0.00 0.00 0.00 54 1004.5
20260504194519 76 188 9.0 25.0 0.00 0.00 0.00 53 1004.7
20260504193017 76 199 12.0 22.0 0.00 0.00 0.00 53 1004.9
20260504191527 75 248 10.0 24.0 0.00 0.00 0.00 55 1005.0
20260504190013 76 205 8.0 18.0 0.00 0.00 0.00 56 1005.1
20260504184516 75 219 12.0 23.0 0.00 0.00 0.00 54 1005.1
20260504183008 75 244 9.0 20.0 0.00 0.00 0.00 54 1005.4
20260504181512 74 217 8.0 20.0 0.00 0.00 0.00 56 1005.6
20260504180004 74 218 9.0 22.0 0.00 0.00 0.00 58 1005.9
20260504174600 73 215 14.0 28.0 0.00 0.00 0.00 56 1006.1
20260504173059 73 229 13.0 22.0 0.00 0.00 0.00 57 1006.3
20260504171559 72 196 8.0 27.0 0.00 0.00 0.00 58 1006.4
20260504081552 63 208 6.0 14.0 0.00 0.00 0.00 58 1009.1
20260504080109 64 248 7.0 12.0 0.00 0.00 0.00 58 1009.2